Regional Weather Roundup
Issued by NWS

Home | Current Version | Previous Version | Text Only | Print | Product List | Glossary Off
Versions: 1 2 3 4 5 6 7 8 9 10 11 12 13 14 15 16 17 18 19 20 21 22 23 24 25 26 27 28 29 30 31 32 33 34 35 36 37 38 39 40 41 42 43 44 45 46 47 48 49 50

000
ASUS43 KMPX 222310
RWRMN
WEATHER ROUNDUP FOR MINNESOTA
NATIONAL WEATHER SERVICE TWIN CITIES/CHANHASSEN MN
600 PM CDT TUE MAY 22 2018


NOTE: "FAIR" INDICATES FEW OR NO CLOUDS BELOW 12,000 FEET WITH NO
SIGNIFICANT WEATHER AND/OR OBSTRUCTIONS TO VISIBILITY. N/A MEANS
CURRENT SKY AND/OR WEATHER CONDITIONS ARE NOT AVAILABLE.

MNZ060>063-068>070-230000-
   Twin Cities Metro

CITY           SKY/WX    TMP DP  RH WIND       PRES   REMARKS
TWIN CITIES    FAIR      75  58  55 SE8       30.02F
ST PAUL        FAIR      74  57  55 SE5       30.03S
CRYSTAL        PTSUNNY   76  55  48 SE7       30.01S
BLAINE         PTSUNNY   75  55  50 SE5       30.03S
LAKEVILLE      FAIR      73  57  56 E6        30.02S
EDEN PRAIRIE   FAIR      76  57  51 VRB6      30.01S
SOUTH ST PAUL  FAIR      74  55  50 SE3       30.03S
LAKE ELMO      PTSUNNY   72  57  60 CALM      30.05R
$$
MNZ001>005-007-008-013>017-022>024-027-028-230000-
   Northwest Minnesota

CITY           SKY/WX    TMP DP  RH WIND       PRES   REMARKS
BEMIDJI        PTSUNNY   74  53  47 E5        30.00S
HALLOCK        FAIR      81  52  36 CALM      29.93S
ROSEAU         FAIR      79  57  47 W3        29.97S
WARROAD        FAIR      72  55  56 E7        29.98S
THIEF RVR FALL PTSUNNY   76  54  46 S6        29.98
CROOKSTON      FAIR      79  54  41 S6        29.96S
FOSSTON        FAIR      79  48  34 SW7       29.99S
DETROIT LAKES  FAIR      75  54  46 SE8       30.00F
MOORHEAD       FAIR      82  50  32 SE8       29.95S
PARK RAPIDS    FAIR      75  55  49 S9        30.01S
MAHNOMEN       MOCLDY    74  55  51 S6        29.98F
$$
MNZ006-009>011-018-025>026-230000-
   North Central Minnesota

CITY           SKY/WX    TMP DP  RH WIND       PRES   REMARKS
BAUDETTE       FAIR      78  45  30 E6        29.98S
FLAG ISLAND    FAIR      73  46  38 SE8       29.97S
INTL FALLS     FAIR      80  42  25 NW6       29.97S
WASKISH          N/A     73  55  53 W6        29.99S
BIG FORK       FAIR      77  54  44 S3        30.00R
LONGVILLE      FAIR      73  54  49 W3        30.02R
GRAND RAPIDS   FAIR      75  54  47 SW6       30.02S
CRANE LAKE     FAIR      77  37  24 N5        29.99S
ORR            FAIR      79  41  25 NW5       29.96S
COOK           FAIR      79  48  34 W6        29.99S
WALKER         FAIR      73  55  54 E5        30.01S
$$
MNZ012-019>021-037-230000-
   Northeast Minnesota

CITY           SKY/WX    TMP DP  RH WIND       PRES   REMARKS
DULUTH         FAIR      78  52  40 W9        30.00F
ELY            FAIR      77  36  22 CALM      29.99S
HIBBING        PTSUNNY   76  51  41 CALM      29.99S
EVELETH        FAIR      77  52  41 NW7       30.00S
DULUTH HARBOR  FAIR      77  57  50 SE3       29.99S
TWO HARBORS    FAIR      81  59  47 S9        29.98S
SILVER BAY     FAIR      75  54  46 S14       29.97S
GRAND MARAIS     N/A     44  38  79 SW6       29.98S
G MARAIS ARPRT FAIR      72  28  20 S9        30.02S
$$
MNZ029>031-032-039>041-046>048-054>057-064-230000-
   West Central Minnesota

CITY           SKY/WX    TMP DP  RH WIND       PRES   REMARKS
FERGUS FALLS   FAIR      79  55  44 SE10      29.92S
WHEATON        SUNNY     82  46  28 SE6       29.96F
MORRIS         MOSUNNY   82  54  36 SE9       29.96F
ALEXANDRIA     PTSUNNY   79  55  43 S9        30.01F
ELBOW LAKE     FAIR      77  56  48 E10       29.98S
WADENA         FAIR      73  55  53 SE9       30.01S
GLENWOOD       FAIR      75  55  50 SE5       30.02S
APPLETON       SUNNY     81  54  39 SE6       29.96S
BENSON         MOSUNNY   79  55  44 S6        29.99S
ORTONVILLE     MOSUNNY   81  55  41 E8        29.95F
MADISON        MOSUNNY   82  54  36 S9        29.95F
WILLMAR        FAIR      75  57  53 SE9       30.02S
$$
MNZ033>034-036-042>043-049>051-058-059-230000-
   Central Minnesota

CITY           SKY/WX    TMP DP  RH WIND       PRES   REMARKS
ST CLOUD       FAIR      74  55  51 S8        30.02S
SAUK CENTRE    FAIR      72  57  58 SE8       30.02S
PAYNESVILLE    FAIR      74  59  58 CALM      30.02S
PINE RIVER     FAIR      72  54  53 S8        30.05R
BRAINERD       FAIR      74  53  48 S7        30.03R
STAPLES        PTSUNNY   73  54  49 S5        30.02S
LONG PRAIRIE   PTSUNNY   72  54  53 E7        30.03S
LITTLE FALLS   FAIR      73  54  49 SE5       30.02F
LITCHFIELD     FAIR      77  59  53 E3        30.01S
BUFFALO        FAIR      75  55  50 E7        30.03S
MAPLE LAKE     FAIR      76  59  56 SE3       30.02F
HUTCHINSON     PTSUNNY   79  60  52 E7        30.01S
$$
MNZ037-044-045-052-053-230000-
   East Central Minnesota

CITY           SKY/WX    TMP DP  RH WIND       PRES   REMARKS
PRINCETON      CLOUDY    75  55  50 S7        30.02F
MORA           CLOUDY    70  54  56 S5        30.05R
CAMBRIDGE      PTSUNNY   75  57  53 S6        30.03S
RUSH CITY      CLOUDY    72  56  57 S3        30.03S
MOOSE LAKE     CLOUDY    75  52  43 S5        30.01R
HINCKLEY       CLOUDY    72  55  56 S6        30.03S
CLOQUET        CLOUDY    75  48  38 S10       30.01S
MCGREGOR       FAIR      73  52  46 S7        30.03R
$$
MNZ071>073-080-081-089-090-097-098-230000-
   Southwest Minnesota

CITY           SKY/WX    TMP DP  RH WIND       PRES   REMARKS
MONTEVIDEO     SUNNY     81  55  41 S8        29.97F
GRANITE FALLS  SUNNY     80  58  46 E8        29.99S
CANBY          MOSUNNY   81  56  41 SE12      29.96F
MARSHALL       MOSUNNY   79  58  48 SE12      29.96S
REDWOOD FALLS  SUNNY     77  58  51 VRB5      29.98F
OLIVIA         SUNNY     77  59  53 SE3       29.99S
PIPESTONE      SUNNY     79  63  57 S13G20    29.97S
WINDOM         SUNNY     79  54  41 SE8       29.98F
WORTHINGTON    PTSUNNY   78  61  55 S8        29.99S
JACKSON        MOSUNNY   77  59  53 SE8       30.00S
TRACY          MOSUNNY   80  61  51 SE6       29.97S
SLAYTON        PTSUNNY   80  61  52 SE14G21   29.99S
$$
MNZ065>067-074>077-082>085-091>093-230000-
   South Central Minnesota

CITY           SKY/WX    TMP DP  RH WIND       PRES   REMARKS
MANKATO        FAIR      78  57  48 E10       30.00S
NEW ULM        MOSUNNY   81  54  39 S5        29.99S
ST JAMES       MOSUNNY   81  55  41 CALM      29.99S
FAIRMONT       MOSUNNY   79  59  50 S9        30.00R
GLENCOE        FAIR      79  56  44 SE5       30.00S
FARIBAULT      FAIR      75  57  53 CALM      30.03R
OWATONNA       FAIR      75  59  57 E9        30.02S
WASECA         FAIR      77  55  47 SE6       30.03R
ALBERT LEA     FAIR      75  54  46 SE5       30.02R
$$
MNZ078>079-086>088-094>096-230000-
   Southeast Minnesota

CITY           SKY/WX    TMP DP  RH WIND       PRES   REMARKS
ROCHESTER      FAIR      72  59  63 E6        30.04F
RED WING       CLOUDY    72  52  49 SE6       30.03S
STANTON        FAIR      75  57  53 CALM      30.01F
DODGE CENTER   FAIR      73  57  56 SE7       30.04F
WINONA         CLOUDY    66  59  77 CALM      30.05R
AUSTIN         FAIR      77  55  47 CALM      30.02S
PRESTON        FAIR      69  58  66 E8        30.06S
$$
ABBREVIATIONS USED IN REMARKS
   TC - TEMPERATURES IN CELSIUS
  WCI - WIND CHILL INDEX
   HX - HEAT INDEX
  VSB - VISIBILITY
$$




USA.gov is the U.S. government's official web portal to all federal, state and local government web resources and services.